CW3783 Weather Reports


Display with metric or nautical units.
time (UTC)temp
F
wind
direction
speed
MPH
gust
MPH
rain 1hr
in
rain 24hr
in
rain mn
in
humidity
%
barometer
mb
20260902122804 77 71 5.0 9.0 0.00 0.00 0.00 86 1016.1
20260902122305 77 133 6.0 9.0 0.00 0.00 0.00 88 1016.0
20260902121805 77 52 5.0 8.0 0.00 0.00 0.00 88 1015.9
20260902121305 76 91 4.0 7.0 0.00 0.00 0.00 89 1015.9
20260902120305 76 107 3.0 8.0 0.00 0.00 0.00 91 1015.9
20260902115804 76 88 4.0 7.0 0.00 0.00 0.00 91 1015.8
20260902114804 75 37 3.0 3.0 0.00 0.00 0.00 91 1015.9
20260902114304 75 37 1.0 3.0 0.00 0.00 0.00 92 1015.8
20260902113804 75 36 1.0 3.0 0.00 0.00 0.00 92 1015.8
20260902113304 75 36 1.0 2.0 0.00 0.00 0.00 92 1015.8
20260902112804 75 36 0.0 0.0 0.00 0.00 0.00 92 1015.9
20260902112306 75 36 0.0 1.0 0.00 0.00 0.00 92 1015.9
20260902111805 75 36 0.0 0.0 0.00 0.00 0.00 92 1015.9
20260902111305 74 36 1.0 1.0 0.00 0.00 0.00 92 1015.9
20260902110804 74 36 1.0 1.0 0.00 0.00 0.00 92 1015.9
20260902110304 74 36 0.0 1.0 0.00 0.00 0.00 92 1015.8
20260902105804 74 36 0.0 1.0 0.00 0.00 0.00 91 1015.8
20260902105306 74 36 1.0 2.0 0.00 0.00 0.00 91 1015.7
20260902104805 74 36 0.0 1.0 0.00 0.00 0.00 91 1015.7
20260902104304 74 36 1.0 2.0 0.00 0.00 0.00 91 1015.6
20260902103805 74 36 0.0 0.0 0.00 0.00 0.00 91 1015.5
20260902103304 74 36 1.0 2.0 0.00 0.00 0.00 91 1015.5
20260902102804 74 36 0.0 1.0 0.00 0.00 0.00 90 1015.5
20260902102307 74 36 0.0 1.0 0.00 0.00 0.00 90 1015.7
20260902101804 74 36 1.0 3.0 0.00 0.00 0.00 90 1015.8
20260902101305 75 36 1.0 3.0 0.00 0.00 0.00 90 1015.6
20260902100805 75 36 2.0 3.0 0.00 0.00 0.00 90 1015.6
20260902100304 75 125 1.0 1.0 0.00 0.00 0.00 90 1015.6
20260902095804 75 125 0.0 2.0 0.00 0.00 0.00 90 1015.5
20260902094803 75 125 0.0 1.0 0.00 0.00 0.00 89 1015.4
20260902094304 75 125 1.0 2.0 0.00 0.00 0.00 89 1015.3
20260902093805 75 125 0.0 1.0 0.00 0.00 0.00 89 1015.3
20260902093305 76 125 0.0 0.0 0.00 0.00 0.00 88 1015.4
20260902092804 76 125 0.0 0.0 0.00 0.00 0.00 88 1015.5
20260902092305 76 125 1.0 2.0 0.00 0.00 0.00 88 1015.5
20260902091806 76 125 1.0 2.0 0.00 0.00 0.00 88 1015.5
20260902091305 76 125 0.0 0.0 0.00 0.00 0.00 88 1015.5
20260902090803 76 125 0.0 0.0 0.00 0.00 0.00 87 1015.4
20260902090304 76 125 0.0 2.0 0.00 0.00 0.00 87 1015.4
20260902085804 76 125 0.0 0.0 0.00 0.00 0.00 87 1015.4
20260902084804 76 125 0.0 2.0 0.00 0.00 0.00 87 1015.3
20260902084304 77 125 0.0 3.0 0.00 0.00 0.00 87 1015.3
20260902083304 77 125 1.0 3.0 0.00 0.00 0.00 86 1015.4
20260902082804 77 125 1.0 2.0 0.00 0.00 0.00 86 1015.4
20260902082309 77 125 1.0 3.0 0.00 0.00 0.00 86 1015.4
20260902081804 77 125 1.0 2.0 0.00 0.00 0.00 85 1015.4
20260902081304 77 122 1.0 3.0 0.00 0.00 0.00 85 1015.4
20260902080804 77 90 2.0 3.0 0.00 0.00 0.00 85 1015.3
20260902080305 77 152 2.0 6.0 0.00 0.00 0.00 84 1015.2
20260902075306 77 147 2.0 3.0 0.00 0.00 0.00 83 1015.4
20260902074804 77 137 3.0 6.0 0.00 0.00 0.00 83 1015.4
20260902074304 77 110 1.0 3.0 0.00 0.00 0.00 83 1015.3
20260902073804 77 110 2.0 3.0 0.00 0.00 0.00 83 1015.4
20260902073304 78 110 1.0 3.0 0.00 0.00 0.00 82 1015.3
20260902072309 78 88 2.0 3.0 0.00 0.00 0.00 82 1015.1
20260902071804 78 25 1.0 3.0 0.00 0.00 0.00 82 1015.1
20260902071304 78 25 2.0 3.0 0.00 0.00 0.00 81 1015.0
20260902070304 78 25 0.0 0.0 0.00 0.00 0.00 80 1014.9
20260902065804 78 25 0.0 0.0 0.00 0.00 0.00 80 1014.9
20260902065306 78 25 0.0 0.0 0.00 0.00 0.00 79 1014.8
20260902064804 78 25 0.0 0.0 0.00 0.00 0.00 79 1014.9
20260902064304 79 25 0.0 1.0 0.00 0.00 0.00 79 1014.8
20260902062804 79 25 0.0 2.0 0.00 0.00 0.00 78 1014.4
20260902062306 79 25 1.0 3.0 0.00 0.00 0.00 77 1014.3
20260902060804 79 25 0.0 0.0 0.00 0.00 0.00 76 1014.3
20260902060304 79 25 0.0 2.0 0.00 0.00 0.00 76 1014.3
20260902054804 80 25 0.0 1.0 0.00 0.00 0.00 76 1014.4
20260902054304 80 25 1.0 2.0 0.00 0.00 0.00 76 1014.3
20260902053804 80 25 1.0 3.0 0.00 0.00 0.00 76 1014.4
20260902052804 80 17 5.0 8.0 0.00 0.00 0.00 76 1014.5
20260902052306 80 13 5.0 12.0 0.00 0.00 0.00 76 1014.7
20260902051804 80 9 4.0 8.0 0.00 0.00 0.00 76 1014.7
20260902051304 80 38 5.0 15.0 0.00 0.00 0.00 77 1014.6
20260902050804 80 11 5.0 8.0 0.00 0.00 0.00 79 1014.7
20260902050305 81 4 5.0 9.0 0.00 0.00 0.00 81 1014.8
20260902045804 81 4 2.0 5.0 0.00 0.00 0.00 81 1014.9
20260902045306 81 2 1.0 7.0 0.00 0.00 0.00 80 1014.8
20260902044804 81 11 3.0 5.0 0.00 0.00 0.00 80 1014.7
20260902044304 82 124 0.0 0.0 0.00 0.00 0.00 79 1014.5
20260902043304 82 146 2.0 3.0 0.00 0.00 0.00 79 1014.6
20260902042805 82 127 2.0 3.0 0.00 0.00 0.00 78 1014.4
20260902042308 82 90 2.0 6.0 0.00 0.00 0.00 78 1014.4
20260902041804 83 137 3.0 9.0 0.00 0.00 0.00 78 1014.4
20260902041304 83 106 2.0 7.0 0.00 0.00 0.00 77 1014.5
20260902040805 83 89 4.0 7.0 0.00 0.00 0.00 77 1014.5
20260902040304 84 101 5.0 8.0 0.00 0.00 0.00 76 1014.4
20260902035305 84 80 5.0 9.0 0.00 0.00 0.00 73 1014.2
20260902034804 84 56 2.0 3.0 0.00 0.00 0.00 72 1013.9
20260902034304 84 7 3.0 8.0 0.00 0.00 0.00 72 1013.9
20260902033804 84 22 5.0 8.0 0.00 0.00 0.00 72 1013.9
20260902033304 84 54 4.0 10.0 0.00 0.00 0.00 72 1013.9
20260902032804 83 32 3.0 8.0 0.00 0.00 0.00 72 1013.4
20260902032306 84 318 3.0 7.0 0.00 0.00 0.00 72 1013.2
20260902031304 84 305 4.0 9.0 0.00 0.00 0.00 72 1013.2
20260902030804 84 352 2.0 6.0 0.00 0.00 0.00 72 1013.2
20260902030304 84 347 2.0 5.0 0.00 0.00 0.00 71 1013.1
20260902025804 84 317 3.0 8.0 0.00 0.00 0.00 71 1013.0
20260902025306 84 310 4.0 7.0 0.00 0.00 0.00 71 1012.9
20260902024804 84 307 5.0 9.0 0.00 0.00 0.00 71 1012.7
20260902024304 85 306 5.0 12.0 0.00 0.00 0.00 70 1012.6
20260902023804 85 309 5.0 8.0 0.00 0.00 0.00 70 1012.6
20260902023304 85 304 3.0 8.0 0.00 0.00 0.00 70 1012.5
20260902022804 85 295 5.0 9.0 0.00 0.00 0.00 70 1012.4
20260902022306 85 298 5.0 12.0 0.00 0.00 0.00 70 1012.5
20260902021805 85 299 6.0 10.0 0.00 0.00 0.00 69 1012.6
20260902021304 85 311 5.0 12.0 0.00 0.00 0.00 69 1012.6
20260902020804 86 303 6.0 10.0 0.00 0.00 0.00 69 1012.6
20260902020304 86 297 5.0 13.0 0.00 0.00 0.00 69 1012.6
20260902015306 86 298 7.0 13.0 0.00 0.00 0.00 68 1012.6
20260902014805 86 301 5.0 14.0 0.00 0.00 0.00 68 1012.6
20260902014304 86 311 8.0 12.0 0.00 0.00 0.00 68 1012.6
20260902013804 87 297 7.0 13.0 0.00 0.00 0.00 68 1012.5
20260902013304 87 307 5.0 9.0 0.00 0.00 0.00 67 1012.5
20260902012309 87 290 5.0 10.0 0.00 0.00 0.00 67 1012.3
20260902010804 88 295 5.0 12.0 0.00 0.00 0.00 66 1012.3
20260902010304 88 288 4.0 7.0 0.00 0.00 0.00 66 1012.2
20260902005804 88 313 4.0 7.0 0.00 0.00 0.00 65 1012.2
20260902005306 88 291 5.0 8.0 0.00 0.00 0.00 65 1012.2
20260902004805 88 294 4.0 9.0 0.00 0.00 0.00 65 1012.2
20260902004303 88 294 2.0 6.0 0.00 0.00 0.00 65 1012.0
20260902003805 88 247 3.0 8.0 0.00 0.00 0.00 65 1011.9
20260902003304 89 280 4.0 9.0 0.00 0.00 0.00 65 1011.8
20260902002306 89 256 1.0 3.0 0.00 0.00 0.00 65 1011.7
20260902001304 89 258 2.0 6.0 0.00 0.00 0.00 64 1011.2
20260902000804 89 278 0.0 3.0 0.00 0.00 0.00 64 1011.1
20260902000305 89 247 1.0 3.0 0.00 0.00 0.00 64 1011.1
20260901235804 90 205 0.0 3.0 0.00 0.00 0.00 64 1011.1
20260901235307 90 231 1.0 5.0 0.00 0.00 0.00 63 1011.1
20260901234304 90 234 1.0 3.0 0.00 0.00 0.00 63 1011.2
20260901233805 90 229 0.0 3.0 0.00 0.00 0.00 62 1011.2
20260901233305 91 229 1.0 3.0 0.00 0.00 0.00 62 1011.3
20260901232804 91 252 2.0 3.0 0.00 0.00 0.00 62 1011.2
20260901231804 91 223 1.0 5.0 0.00 0.00 0.00 61 1011.3
20260901231304 91 241 2.0 5.0 0.00 0.00 0.00 61 1011.3
20260901230804 91 233 2.0 5.0 0.00 0.00 0.00 60 1011.4
20260901230304 92 222 3.0 5.0 0.00 0.00 0.00 60 1011.3
20260901225804 92 213 2.0 6.0 0.00 0.00 0.00 60 1011.4
20260901225306 92 230 2.0 3.0 0.00 0.00 0.00 59 1011.4
20260901224804 92 248 2.0 6.0 0.00 0.00 0.00 59 1011.4
20260901224304 92 250 1.0 6.0 0.00 0.00 0.00 58 1011.4
20260901223804 93 267 1.0 9.0 0.00 0.00 0.00 58 1011.5
20260901222804 93 233 1.0 3.0 0.00 0.00 0.00 57 1011.5
20260901222306 93 216 2.0 3.0 0.00 0.00 0.00 57 1011.5
20260901221805 94 259 3.0 8.0 0.00 0.00 0.00 56 1011.5
20260901221305 94 223 5.0 12.0 0.00 0.00 0.00 56 1011.5
20260901220804 94 242 4.0 12.0 0.00 0.00 0.00 56 1011.6
20260901220304 95 246 3.0 9.0 0.00 0.00 0.00 55 1011.6
20260901215804 95 274 7.0 12.0 0.00 0.00 0.00 55 1011.7
20260901215306 95 258 2.0 7.0 0.00 0.00 0.00 55 1011.7
20260901214804 95 240 4.0 9.0 0.00 0.00 0.00 54 1011.6
20260901214304 96 253 2.0 8.0 0.00 0.00 0.00 54 1011.6
20260901213804 96 242 5.0 12.0 0.00 0.00 0.00 53 1011.5
20260901212804 96 221 3.0 9.0 0.00 0.00 0.00 54 1011.7
20260901212306 96 186 5.0 10.0 0.00 0.00 0.00 53 1011.7
20260901211804 96 269 3.0 7.0 0.00 0.00 0.00 53 1011.8
20260901210804 96 249 3.0 10.0 0.00 0.00 0.00 53 1011.9
20260901210304 96 218 2.0 8.0 0.00 0.00 0.00 53 1011.9
20260901205804 96 229 2.0 9.0 0.00 0.00 0.00 53 1011.9
20260901205306 96 281 3.0 9.0 0.00 0.00 0.00 53 1011.9
20260901204805 96 281 3.0 10.0 0.00 0.00 0.00 54 1011.8
20260901204305 96 314 2.0 6.0 0.00 0.00 0.00 53 1011.9
20260901203805 96 255 4.0 10.0 0.00 0.00 0.00 53 1012.0
20260901203304 96 217 2.0 6.0 0.00 0.00 0.00 53 1012.0
20260901202804 96 301 4.0 8.0 0.00 0.00 0.00 54 1012.1
20260901202306 96 279 2.0 6.0 0.00 0.00 0.00 53 1012.1
20260901201304 96 278 6.0 10.0 0.00 0.00 0.00 52 1012.3
20260901200804 97 263 4.0 9.0 0.00 0.00 0.00 53 1012.2
20260901200304 97 348 4.0 8.0 0.00 0.00 0.00 52 1012.2
20260901195804 97 195 3.0 9.0 0.00 0.00 0.00 52 1012.3
20260901195306 97 282 2.0 6.0 0.00 0.00 0.00 52 1012.4
20260901194805 97 303 3.0 9.0 0.00 0.00 0.00 52 1012.5
20260901194305 97 221 1.0 6.0 0.00 0.00 0.00 54 1012.5
20260901193304 97 275 2.0 7.0 0.00 0.00 0.00 53 1012.6
20260901192306 96 292 3.0 8.0 0.00 0.00 0.00 54 1012.7
20260901191804 96 293 7.0 13.0 0.00 0.00 0.00 54 1012.8
20260901191304 96 291 6.0 12.0 0.00 0.00 0.00 53 1012.9
20260901190804 97 313 6.0 12.0 0.00 0.00 0.00 53 1012.9
20260901190305 98 282 5.0 12.0 0.00 0.00 0.00 51 1013.0
20260901185805 97 284 2.0 10.0 0.00 0.00 0.00 56 1013.0
20260901184805 97 298 7.0 12.0 0.00 0.00 0.00 54 1013.2
20260901184304 96 256 6.0 10.0 0.00 0.00 0.00 56 1013.2
20260901183804 96 318 6.0 12.0 0.00 0.00 0.00 56 1013.2
20260901183304 95 326 6.0 12.0 0.00 0.00 0.00 56 1013.2
20260901182804 95 215 2.0 8.0 0.00 0.00 0.00 57 1013.0
20260901182305 95 289 5.0 12.0 0.00 0.00 0.00 59 1013.1
20260901181804 95 231 3.0 12.0 0.00 0.00 0.00 57 1013.1
20260901181304 95 248 3.0 12.0 0.00 0.00 0.00 59 1013.2
20260901180804 95 276 4.0 10.0 0.00 0.00 0.00 59 1013.1
20260901180304 94 282 4.0 12.0 0.00 0.00 0.00 59 1013.1
20260901175804 94 276 6.0 13.0 0.00 0.00 0.00 59 1013.2
20260901175305 94 295 4.0 10.0 0.00 0.00 0.00 59 1013.2
20260901174804 93 271 3.0 8.0 0.00 0.00 0.00 61 1013.3
20260901174304 93 301 4.0 10.0 0.00 0.00 0.00 62 1013.3
20260901173804 92 290 5.0 13.0 0.00 0.00 0.00 62 1013.3
20260901173304 92 307 2.0 9.0 0.00 0.00 0.00 63 1013.3
20260901172305 91 318 3.0 9.0 0.00 0.00 0.00 66 1013.3
20260901171804 91 312 6.0 10.0 0.00 0.00 0.00 66 1013.3
20260901171305 90 233 3.0 10.0 0.00 0.00 0.00 65 1013.4
20260901170304 90 302 5.0 8.0 0.00 0.00 0.00 67 1013.3
20260901165306 90 285 4.0 8.0 0.00 0.00 0.00 66 1013.6
20260901164304 90 290 7.0 12.0 0.00 0.00 0.00 65 1013.8
20260901163805 90 308 5.0 10.0 0.00 0.00 0.00 65 1013.8
20260901162804 90 280 3.0 8.0 0.00 0.00 0.00 64 1013.9
20260901161304 91 282 5.0 10.0 0.00 0.00 0.00 62 1013.9
20260901160804 91 314 5.0 9.0 0.00 0.00 0.00 62 1014.0
20260901155306 92 311 9.0 12.0 0.00 0.00 0.00 61 1014.2
20260901154804 92 300 6.0 15.0 0.00 0.00 0.00 61 1014.1
20260901154305 92 310 6.0 12.0 0.00 0.00 0.00 63 1014.2
20260901153804 92 321 3.0 10.0 0.00 0.00 0.00 62 1014.3
20260901153304 91 290 4.0 12.0 0.00 0.00 0.00 64 1014.3
20260901152804 91 254 4.0 10.0 0.00 0.00 0.00 64 1014.4
20260901152306 91 293 6.0 9.0 0.00 0.00 0.00 64 1014.4
20260901151804 91 281 6.0 10.0 0.00 0.00 0.00 65 1014.5
20260901151304 91 305 7.0 12.0 0.00 0.00 0.00 63 1014.5
20260901150304 90 313 7.0 15.0 0.00 0.00 0.00 64 1014.5
20260901145306 90 282 9.0 14.0 0.00 0.00 0.00 66 1014.5
20260901144804 90 292 6.0 12.0 0.00 0.00 0.00 65 1014.4
20260901144304 89 304 5.0 10.0 0.00 0.00 0.00 66 1014.5
20260901143804 89 288 3.0 9.0 0.00 0.00 0.00 67 1014.6
20260901143304 89 299 5.0 10.0 0.00 0.00 0.00 67 1014.6
20260901141804 87 291 2.0 7.0 0.00 0.00 0.00 73 1014.6
20260901141305 86 268 3.0 8.0 0.00 0.00 0.00 73 1014.6
20260901140804 86 269 2.0 6.0 0.00 0.00 0.00 73 1014.6
20260901135804 85 303 2.0 7.0 0.00 0.00 0.00 73 1014.6
20260901135305 86 282 4.0 12.0 0.00 0.00 0.00 72 1014.6
20260901134804 86 249 3.0 8.0 0.00 0.00 0.00 72 1014.6
20260901133804 86 268 5.0 9.0 0.00 0.00 0.00 72 1014.4
20260901133304 86 249 2.0 8.0 0.00 0.00 0.00 73 1014.4
20260901131304 84 279 4.0 9.0 0.00 0.00 0.00 75 1014.7
20260901130804 84 300 1.0 8.0 0.00 0.00 0.00 77 1014.7
20260901130304 83 269 3.0 10.0 0.00 0.00 0.00 78 1014.7
20260901125804 83 334 2.0 9.0 0.00 0.00 0.00 79 1014.6
20260901125308 82 280 2.0 12.0 0.00 0.00 0.00 80 1014.8
20260901124804 82 266 4.0 10.0 0.00 0.00 0.00 82 1014.9
20260901124304 82 302 3.0 7.0 0.00 0.00 0.00 83 1015.1
20260901123804 81 265 3.0 9.0 0.00 0.00 0.00 84 1015.1
20260901123304 80 289 2.0 7.0 0.00 0.00 0.00 86 1015.2